Location: Barrio de Buenos Aires
(28.4500°N, 16.2667°W)
Time: 17:26:03
(UTC+00:00)

H-2A DEB - Pass Details

Date: 24 January 2020
Orbit: 419 x 33972 km, 28.9° (Epoch: 21 February)

Event Time Altitude Azimuth Distance (km) Brightness Sun altitude
Rises 19:26:39 0° 250° (WSW) 5,165 11.0 -11.0°
Reaches altitude 10° 19:31:27 10° 247° (WSW) 2,726 8.8 -12.0°
Maximum altitude 19:36:09 54° 169° (S) 599 4.0 -13.0°
Enters shadow 19:37:41 22° 97° (E) 983 4.6 -13.4°
